Time,TemperatureF,DewpointF,PressureIn,WindDirection,WindDirectionDegrees,WindSpeedMPH,WindSpeedGustMPH,Humidity,HourlyPrecipIn,Conditions,Clouds,dailyrainin,SoftwareType,DateUTC
2013-04-25 00:00:00,65.4,59.1,30.06,NW,305,0.0,0.0,80,0.00,,---,0.00,VWS V14.00,2013-04-25 04:00:00,
2013-04-25 00:01:00,65.4,59.1,30.06,NW,305,0.0,0.0,80,0.00,,---,0.00,VWS V14.00,2013-04-25 04:01:00,
2013-04-25 00:06:00,65.4,59.1,30.06,NW,305,0.0,0.0,80,0.00,,---,0.00,VWS V14.00,2013-04-25 04:06:00,
2013-04-25 00:11:00,65.5,59.2,30.06,NW,305,0.0,1.0,80,0.00,,---,0.00,VWS V14.00,2013-04-25 04:11:00,
2013-04-25 00:16:00,65.6,58.9,30.07,NW,305,0.0,1.0,79,0.00,,---,0.00,VWS V14.00,2013-04-25 04:16:00,
2013-04-25 00:21:00,65.8,59.1,30.07,NW,305,0.0,1.0,79,0.00,,---,0.00,VWS V14.00,2013-04-25 04:21:00,
2013-04-25 00:26:00,65.9,59.2,30.07,NW,305,0.0,1.0,79,0.00,,---,0.00,VWS V14.00,2013-04-25 04:26:00,
2013-04-25 00:31:00,65.9,59.2,30.07,NW,305,0.0,0.0,79,0.00,,---,0.00,VWS V14.00,2013-04-25 04:31:00,
2013-04-25 00:36:00,65.9,59.2,30.07,NW,305,0.0,0.0,79,0.00,,---,0.00,VWS V14.00,2013-04-25 04:36:00,
2013-04-25 00:41:00,65.9,59.2,30.07,NW,305,0.0,0.0,79,0.00,,---,0.00,VWS V14.00,2013-04-25 04:41:00,
2013-04-25 00:46:00,65.9,59.2,30.07,NW,305,0.0,0.0,79,0.00,,---,0.00,VWS V14.00,2013-04-25 04:46:00,
2013-04-25 00:51:00,65.9,59.2,30.07,NW,305,0.0,0.0,79,0.00,,---,0.00,VWS V14.00,2013-04-25 04:51:00,
2013-04-25 00:56:00,65.9,59.2,30.07,NW,305,0.0,0.0,79,0.00,,---,0.00,VWS V14.00,2013-04-25 04:56:00,
2013-04-25 01:01:00,65.9,59.2,30.06,NW,305,0.0,0.0,79,0.00,,---,0.00,VWS V14.00,2013-04-25 05:01:00,
2013-04-25 01:06:00,65.9,59.2,30.06,NW,305,0.0,0.0,79,0.00,,---,0.00,VWS V14.00,2013-04-25 05:06:00,
2013-04-25 01:11:00,65.8,59.1,30.06,NW,305,0.0,0.0,79,0.00,,---,0.00,VWS V14.00,2013-04-25 05:11:00,
2013-04-25 01:16:00,65.8,59.1,30.06,NW,305,0.0,1.0,79,0.00,,---,0.00,VWS V14.00,2013-04-25 05:16:00,
2013-04-25 01:21:00,65.8,59.1,30.06,NW,305,0.0,1.0,79,0.00,,---,0.00,VWS V14.00,2013-04-25 05:21:00,
2013-04-25 01:26:00,65.8,58.8,30.06,NW,305,0.0,1.0,78,0.00,,---,0.00,VWS V14.00,2013-04-25 05:26:00,
2013-04-25 01:31:00,65.9,58.9,30.06,NW,305,0.0,0.0,78,0.00,,---,0.00,VWS V14.00,2013-04-25 05:31:00,
2013-04-25 01:36:00,65.9,58.9,30.06,NW,305,0.0,0.0,78,0.00,,---,0.00,VWS V14.00,2013-04-25 05:36:00,
2013-04-25 01:41:00,65.9,58.9,30.06,NW,305,0.0,0.0,78,0.00,,---,0.00,VWS V14.00,2013-04-25 05:41:00,
2013-04-25 01:46:00,65.9,58.9,30.06,NW,305,0.0,0.0,78,0.00,,---,0.00,VWS V14.00,2013-04-25 05:46:00,
2013-04-25 01:51:00,65.9,58.9,30.06,NW,305,0.0,0.0,78,0.00,,---,0.00,VWS V14.00,2013-04-25 05:51:00,
2013-04-25 01:56:00,66.0,59.0,30.06,NW,305,0.0,0.0,78,0.00,,---,0.00,VWS V14.00,2013-04-25 05:56:00,
2013-04-25 02:01:00,65.9,58.9,30.06,NW,305,0.0,0.0,78,0.00,,---,0.00,VWS V14.00,2013-04-25 06:01:00,
2013-04-25 02:06:00,66.0,59.0,30.06,NW,305,0.0,1.0,78,0.00,,---,0.00,VWS V14.00,2013-04-25 06:06:00,
2013-04-25 02:11:00,66.0,59.0,30.06,NW,305,0.0,1.0,78,0.00,,---,0.00,VWS V14.00,2013-04-25 06:11:00,
2013-04-25 02:16:00,66.1,59.0,30.06,NW,305,0.0,1.0,78,0.00,,---,0.00,VWS V14.00,2013-04-25 06:16:00,
2013-04-25 02:21:00,66.1,59.0,30.06,NW,305,0.0,1.0,78,0.00,,---,0.00,VWS V14.00,2013-04-25 06:21:00,
2013-04-25 02:26:00,66.2,59.2,30.06,NW,305,0.0,0.0,78,0.00,,---,0.00,VWS V14.00,2013-04-25 06:26:00,
2013-04-25 02:31:00,66.2,58.8,30.05,NW,305,0.0,1.0,77,0.00,,---,0.00,VWS V14.00,2013-04-25 06:31:00,
2013-04-25 02:36:00,66.2,58.8,30.05,NW,305,1.0,1.0,77,0.00,,---,0.00,VWS V14.00,2013-04-25 06:36:00,
2013-04-25 02:41:00,66.3,58.9,30.05,WNW,301,0.0,4.0,77,0.00,,---,0.00,VWS V14.00,2013-04-25 06:41:00,
2013-04-25 02:46:00,66.3,58.9,30.05,WNW,297,1.0,4.0,77,0.00,,---,0.00,VWS V14.00,2013-04-25 06:46:00,
2013-04-25 02:51:00,66.4,59.0,30.05,WNW,297,0.0,4.0,77,0.00,,---,0.00,VWS V14.00,2013-04-25 06:51:00,
2013-04-25 02:56:00,66.4,59.0,30.05,WNW,297,0.0,4.0,77,0.00,,---,0.00,VWS V14.00,2013-04-25 06:56:00,
2013-04-25 03:01:00,66.5,59.1,30.05,WNW,296,0.0,1.0,77,0.00,,---,0.00,VWS V14.00,2013-04-25 07:01:00,
2013-04-25 03:06:00,66.5,59.1,30.05,WNW,296,0.0,1.0,77,0.00,,---,0.00,VWS V14.00,2013-04-25 07:06:00,
2013-04-25 03:11:00,66.5,59.1,30.05,WNW,296,1.0,1.0,77,0.00,,---,0.00,VWS V14.00,2013-04-25 07:11:00,
2013-04-25 03:16:00,66.5,59.1,30.05,WNW,296,0.0,1.0,77,0.00,,---,0.00,VWS V14.00,2013-04-25 07:16:00,
2013-04-25 03:21:00,66.5,59.1,30.05,WNW,296,0.0,2.0,77,0.00,,---,0.00,VWS V14.00,2013-04-25 07:21:00,
2013-04-25 03:26:00,66.5,59.4,30.05,WNW,295,1.0,2.0,78,0.00,,---,0.00,VWS V14.00,2013-04-25 07:26:00,
2013-04-25 03:31:00,66.5,59.4,30.05,WNW,296,0.0,2.0,78,0.00,,---,0.00,VWS V14.00,2013-04-25 07:31:00,
2013-04-25 03:36:00,66.5,59.4,30.05,WNW,296,0.0,2.0,78,0.00,,---,0.00,VWS V14.00,2013-04-25 07:36:00,
2013-04-25 03:41:00,66.4,59.3,30.05,WNW,296,0.0,2.0,78,0.00,,---,0.00,VWS V14.00,2013-04-25 07:41:00,
2013-04-25 03:46:00,66.4,59.7,30.05,WNW,296,0.0,2.0,79,0.00,,---,0.00,VWS V14.00,2013-04-25 07:46:00,
2013-04-25 03:51:00,66.3,59.6,30.05,WNW,296,0.0,4.0,79,0.00,,---,0.00,VWS V14.00,2013-04-25 07:51:00,
2013-04-25 03:56:00,66.3,59.6,30.05,WNW,296,0.0,4.0,79,0.00,,---,0.00,VWS V14.00,2013-04-25 07:56:00,
2013-04-25 04:01:00,66.2,59.9,30.05,WNW,296,0.0,1.0,80,0.00,,---,0.00,VWS V14.00,2013-04-25 08:01:00,
2013-04-25 04:06:00,66.2,59.9,30.05,WNW,298,0.0,5.0,80,0.00,,---,0.00,VWS V14.00,2013-04-25 08:06:00,
2013-04-25 04:11:00,66.1,59.8,30.05,WNW,298,0.0,5.0,80,0.00,,---,0.00,VWS V14.00,2013-04-25 08:11:00,
2013-04-25 04:16:00,66.0,59.7,30.05,WNW,299,0.0,5.0,80,0.00,,---,0.00,VWS V14.00,2013-04-25 08:16:00,
2013-04-25 04:21:00,65.9,59.6,30.05,WNW,299,0.0,5.0,80,0.00,,---,0.00,VWS V14.00,2013-04-25 08:21:00,
2013-04-25 04:26:00,65.8,59.8,30.05,WNW,299,0.0,5.0,81,0.00,,---,0.00,VWS V14.00,2013-04-25 08:26:00,
2013-04-25 04:31:00,65.6,59.6,30.05,WNW,299,0.0,1.0,81,0.00,,---,0.00,VWS V14.00,2013-04-25 08:31:00,
2013-04-25 04:36:00,65.4,59.8,30.05,WNW,299,0.0,1.0,82,0.00,,---,0.00,VWS V14.00,2013-04-25 08:36:00,
2013-04-25 04:41:00,65.3,60.0,30.05,WNW,299,0.0,1.0,83,0.00,,---,0.00,VWS V14.00,2013-04-25 08:41:00,
2013-04-25 04:46:00,65.2,59.9,30.05,WNW,299,0.0,1.0,83,0.00,,---,0.00,VWS V14.00,2013-04-25 08:46:00,
2013-04-25 04:51:00,65.1,60.2,30.05,WNW,299,0.0,1.0,84,0.00,,---,0.00,VWS V14.00,2013-04-25 08:51:00,
2013-04-25 04:56:00,65.0,60.0,30.06,WNW,299,0.0,1.0,84,0.00,,---,0.00,VWS V14.00,2013-04-25 08:56:00,
2013-04-25 05:01:00,64.9,60.0,30.06,WNW,299,0.0,4.0,84,0.00,,---,0.00,VWS V14.00,2013-04-25 09:01:00,
2013-04-25 05:06:00,64.9,60.0,30.06,WNW,299,0.0,4.0,84,0.00,,---,0.00,VWS V14.00,2013-04-25 09:06:00,
2013-04-25 05:11:00,64.8,60.2,30.06,WNW,299,0.0,4.0,85,0.00,,---,0.00,VWS V14.00,2013-04-25 09:11:00,
2013-04-25 05:16:00,64.8,60.2,30.06,WNW,299,2.0,4.0,85,0.00,,---,0.00,VWS V14.00,2013-04-25 09:16:00,
2013-04-25 05:21:00,64.7,60.1,30.06,NW,318,0.0,5.0,85,0.00,,---,0.00,VWS V14.00,2013-04-25 09:21:00,
2013-04-25 05:26:00,64.7,60.1,30.07,NW,315,0.0,0.0,85,0.00,,---,0.00,VWS V14.00,2013-04-25 09:26:00,
2013-04-25 05:31:00,64.7,60.1,30.07,NW,317,0.0,4.0,85,0.00,,---,0.00,VWS V14.00,2013-04-25 09:31:00,
2013-04-25 05:36:00,64.6,60.0,30.07,NW,317,0.0,4.0,85,0.00,,---,0.00,VWS V14.00,2013-04-25 09:36:00,
2013-04-25 05:41:00,64.5,59.9,30.08,NW,317,1.0,4.0,85,0.00,,---,0.00,VWS V14.00,2013-04-25 09:41:00,
2013-04-25 05:46:00,64.5,59.9,30.08,NW,317,0.0,4.0,85,0.00,,---,0.00,VWS V14.00,2013-04-25 09:46:00,
2013-04-25 05:51:00,64.4,59.8,30.08,NW,316,0.0,4.0,85,0.00,,---,0.00,VWS V14.00,2013-04-25 09:51:00,
2013-04-25 05:56:00,64.3,59.7,30.08,NW,316,0.0,0.0,85,0.00,,---,0.00,VWS V14.00,2013-04-25 09:56:00,
2013-04-25 06:01:00,64.3,59.7,30.08,NW,304,0.0,5.0,85,0.00,,---,0.00,VWS V14.00,2013-04-25 10:01:00,
2013-04-25 06:06:00,64.2,59.6,30.09,NW,304,0.0,5.0,85,0.00,,---,0.00,VWS V14.00,2013-04-25 10:06:00,
2013-04-25 06:11:00,64.1,59.5,30.09,NW,304,0.0,5.0,85,0.00,,---,0.00,VWS V14.00,2013-04-25 10:11:00,
2013-04-25 06:16:00,64.1,59.5,30.09,NW,304,0.0,5.0,85,0.00,,---,0.00,VWS V14.00,2013-04-25 10:16:00,
2013-04-25 06:21:00,64.1,59.5,30.10,NW,308,0.0,5.0,85,0.00,,---,0.00,VWS V14.00,2013-04-25 10:21:00,
2013-04-25 06:26:00,64.0,59.4,30.10,NNW,336,6.0,6.0,85,0.00,,---,0.00,VWS V14.00,2013-04-25 10:26:00,
2013-04-25 06:31:00,64.0,59.1,30.10,NNW,329,0.0,6.0,84,0.00,,---,0.00,VWS V14.00,2013-04-25 10:31:00,
2013-04-25 06:36:00,64.0,59.1,30.10,NNW,329,0.0,6.0,84,0.00,,---,0.00,VWS V14.00,2013-04-25 10:36:00,
2013-04-25 06:41:00,64.0,59.1,30.10,NNW,338,0.0,6.0,84,0.00,,---,0.00,VWS V14.00,2013-04-25 10:41:00,
2013-04-25 06:46:00,63.9,59.0,30.10,NNW,338,0.0,6.0,84,0.00,,---,0.00,VWS V14.00,2013-04-25 10:46:00,
2013-04-25 06:51:00,63.8,59.2,30.11,NNW,338,0.0,6.0,85,0.00,,---,0.00,VWS V14.00,2013-04-25 10:51:00,
2013-04-25 06:56:00,63.6,58.7,30.11,NW,323,1.0,1.0,84,0.00,,---,0.00,VWS V14.00,2013-04-25 10:56:00,
2013-04-25 07:01:00,63.4,58.2,30.11,NW,304,1.0,4.0,83,0.00,,---,0.00,VWS V14.00,2013-04-25 11:01:00,
2013-04-25 07:06:00,63.3,58.1,30.12,WNW,298,0.0,4.0,83,0.00,,---,0.00,VWS V14.00,2013-04-25 11:06:00,
2013-04-25 07:11:00,63.2,58.0,30.12,WNW,298,0.0,4.0,83,0.00,,---,0.00,VWS V14.00,2013-04-25 11:11:00,
2013-04-25 07:16:00,63.2,58.3,30.12,SE,130,0.0,4.0,84,0.00,,---,0.00,VWS V14.00,2013-04-25 11:16:00,
2013-04-25 07:21:00,63.2,58.0,30.13,North,355,0.0,4.0,83,0.00,,---,0.00,VWS V14.00,2013-04-25 11:21:00,
2013-04-25 07:26:00,63.1,57.9,30.13,WNW,300,1.0,4.0,83,0.00,,---,0.00,VWS V14.00,2013-04-25 11:26:00,
2013-04-25 07:31:00,63.1,57.9,30.13,WNW,303,0.0,5.0,83,0.00,,---,0.00,VWS V14.00,2013-04-25 11:31:00,
2013-04-25 07:36:00,63.0,57.8,30.13,NW,324,1.0,5.0,83,0.00,,---,0.00,VWS V14.00,2013-04-25 11:36:00,
2013-04-25 07:41:00,63.0,57.8,30.13,NW,304,1.0,6.0,83,0.00,,---,0.00,VWS V14.00,2013-04-25 11:41:00,
2013-04-25 07:46:00,63.1,57.9,30.13,West,273,2.0,6.0,83,0.00,,---,0.00,VWS V14.00,2013-04-25 11:46:00,
2013-04-25 07:51:00,63.1,57.9,30.14,West,279,0.0,6.0,83,0.00,,---,0.00,VWS V14.00,2013-04-25 11:51:00,
2013-04-25 07:56:00,63.1,57.9,30.14,WNW,286,1.0,6.0,83,0.00,,---,0.00,VWS V14.00,2013-04-25 11:56:00,
2013-04-25 08:01:00,63.1,58.2,30.14,WNW,285,0.0,2.0,84,0.00,,---,0.00,VWS V14.00,2013-04-25 12:01:00,
2013-04-25 08:06:00,63.3,58.1,30.14,WNW,284,0.0,4.0,83,0.00,,---,0.00,VWS V14.00,2013-04-25 12:06:00,
2013-04-25 08:11:00,63.7,58.1,30.15,WNW,296,0.0,5.0,82,0.00,,---,0.00,VWS V14.00,2013-04-25 12:11:00,
2013-04-25 08:16:00,63.9,58.0,30.14,WNW,291,0.0,5.0,81,0.00,,---,0.00,VWS V14.00,2013-04-25 12:16:00,
2013-04-25 08:21:00,63.9,58.0,30.14,NW,318,0.0,5.0,81,0.00,,---,0.00,VWS V14.00,2013-04-25 12:21:00,
2013-04-25 08:26:00,63.8,57.9,30.15,NW,315,0.0,0.0,81,0.00,,---,0.00,VWS V14.00,2013-04-25 12:26:00,
2013-04-25 08:31:00,63.7,57.8,30.15,NW,312,1.0,4.0,81,0.00,,---,0.00,VWS V14.00,2013-04-25 12:31:00,
2013-04-25 08:36:00,63.9,58.0,30.15,NW,309,0.0,4.0,81,0.00,,---,0.00,VWS V14.00,2013-04-25 12:36:00,
2013-04-25 08:41:00,64.3,58.3,30.15,NW,309,0.0,4.0,81,0.00,,---,0.00,VWS V14.00,2013-04-25 12:41:00,
2013-04-25 08:46:00,64.7,58.4,30.15,North,5,1.0,6.0,80,0.00,,---,0.00,VWS V14.00,2013-04-25 12:46:00,
2013-04-25 08:51:00,64.9,58.2,30.15,North,350,0.0,8.0,79,0.00,,---,0.00,VWS V14.00,2013-04-25 12:51:00,
2013-04-25 08:56:00,65.1,58.4,30.15,NNW,334,1.0,1.0,79,0.00,,---,0.00,VWS V14.00,2013-04-25 12:56:00,
2013-04-25 09:01:00,65.3,59.0,30.15,NE,44,2.0,6.0,80,0.00,,---,0.00,VWS V14.00,2013-04-25 13:01:00,
2013-04-25 09:06:00,65.5,58.5,30.15,North,10,1.0,7.0,78,0.00,,---,0.00,VWS V14.00,2013-04-25 13:06:00,
2013-04-25 09:11:00,65.6,58.2,30.15,NW,315,0.0,4.0,77,0.00,,---,0.00,VWS V14.00,2013-04-25 13:11:00,
2013-04-25 09:16:00,65.7,58.3,30.15,NNE,28,0.0,7.0,77,0.00,,---,0.00,VWS V14.00,2013-04-25 13:16:00,
2013-04-25 09:21:00,65.6,57.8,30.15,NE,48,1.0,7.0,76,0.00,,---,0.00,VWS V14.00,2013-04-25 13:21:00,
2013-04-25 09:26:00,65.2,57.8,30.15,NE,35,0.0,0.0,77,0.00,,---,0.00,VWS V14.00,2013-04-25 13:26:00,
2013-04-25 09:31:00,65.2,57.8,30.16,NE,37,1.0,6.0,77,0.00,,---,0.00,VWS V14.00,2013-04-25 13:31:00,
2013-04-25 09:36:00,65.5,58.1,30.15,NNE,28,5.0,6.0,77,0.00,,---,0.00,VWS V14.00,2013-04-25 13:36:00,
2013-04-25 09:41:00,66.0,58.6,30.15,NNE,26,3.0,6.0,77,0.00,,---,0.00,VWS V14.00,2013-04-25 13:41:00,
2013-04-25 09:46:00,66.2,58.4,30.15,NNE,16,3.0,6.0,76,0.00,,---,0.00,VWS V14.00,2013-04-25 13:46:00,
2013-04-25 09:51:00,66.2,58.4,30.15,NNE,14,2.0,6.0,76,0.00,,---,0.00,VWS V14.00,2013-04-25 13:51:00,
2013-04-25 09:56:00,66.1,58.0,30.15,NE,40,3.0,7.0,75,0.00,,---,0.00,VWS V14.00,2013-04-25 13:56:00,
2013-04-25 10:01:00,66.1,58.3,30.16,NE,38,0.0,4.0,76,0.00,,---,0.00,VWS V14.00,2013-04-25 14:01:00,
2013-04-25 10:06:00,66.2,58.4,30.16,NE,39,0.0,4.0,76,0.00,,---,0.00,VWS V14.00,2013-04-25 14:06:00,
2013-04-25 10:11:00,66.5,58.7,30.15,NE,42,2.0,4.0,76,0.00,,---,0.00,VWS V14.00,2013-04-25 14:11:00,
2013-04-25 10:16:00,66.8,58.6,30.15,ENE,63,1.0,6.0,75,0.00,,---,0.00,VWS V14.00,2013-04-25 14:16:00,
2013-04-25 10:21:00,66.9,59.1,30.15,ENE,61,0.0,6.0,76,0.00,,---,0.00,VWS V14.00,2013-04-25 14:21:00,
2013-04-25 10:26:00,67.4,59.6,30.16,ENE,61,1.0,6.0,76,0.00,,---,0.00,VWS V14.00,2013-04-25 14:26:00,
2013-04-25 10:31:00,67.9,59.3,30.16,NE,51,1.0,3.0,74,0.00,,---,0.00,VWS V14.00,2013-04-25 14:31:00,
2013-04-25 10:36:00,68.2,60.0,30.16,North,355,0.0,5.0,75,0.00,,---,0.00,VWS V14.00,2013-04-25 14:36:00,
2013-04-25 10:41:00,68.8,59.8,30.16,North,355,0.0,5.0,73,0.00,,---,0.00,VWS V14.00,2013-04-25 14:41:00,
2013-04-25 10:46:00,69.1,59.7,30.16,North,5,0.0,5.0,72,0.00,,---,0.00,VWS V14.00,2013-04-25 14:46:00,
2013-04-25 10:51:00,68.9,59.5,30.16,NNE,13,1.0,6.0,72,0.00,,---,0.00,VWS V14.00,2013-04-25 14:51:00,
2013-04-25 10:56:00,69.1,59.3,30.17,NNE,14,1.0,6.0,71,0.00,,---,0.00,VWS V14.00,2013-04-25 14:56:00,
2013-04-25 11:01:00,69.5,58.5,30.17,North,350,1.0,6.0,68,0.00,,---,0.00,VWS V14.00,2013-04-25 15:01:00,
2013-04-25 11:06:00,69.4,58.4,30.17,NNW,338,2.0,6.0,68,0.00,,---,0.00,VWS V14.00,2013-04-25 15:06:00,
2013-04-25 11:11:00,69.2,58.2,30.16,NNW,342,0.0,6.0,68,0.00,,---,0.00,VWS V14.00,2013-04-25 15:11:00,
2013-04-25 11:16:00,69.1,58.1,30.16,NNW,345,1.0,6.0,68,0.00,,---,0.00,VWS V14.00,2013-04-25 15:16:00,
2013-04-25 11:21:00,69.3,58.7,30.16,NNE,17,0.0,7.0,69,0.00,,---,0.00,VWS V14.00,2013-04-25 15:21:00,
2013-04-25 11:26:00,69.5,58.1,30.17,NNE,18,0.0,7.0,67,0.00,,---,0.00,VWS V14.00,2013-04-25 15:26:00,
2013-04-25 11:31:00,69.8,58.4,30.16,NNE,18,1.0,2.0,67,0.00,,---,0.00,VWS V14.00,2013-04-25 15:31:00,
2013-04-25 11:36:00,70.1,58.2,30.16,NNE,18,0.0,4.0,66,0.00,,---,0.00,VWS V14.00,2013-04-25 15:36:00,
2013-04-25 11:41:00,70.5,58.6,30.16,NNE,12,0.0,4.0,66,0.00,,---,0.00,VWS V14.00,2013-04-25 15:41:00,
2013-04-25 11:46:00,71.1,59.2,30.16,North,350,0.0,5.0,66,0.00,,---,0.00,VWS V14.00,2013-04-25 15:46:00,
2013-04-25 11:51:00,71.7,58.9,30.16,East,81,2.0,6.0,64,0.00,,---,0.00,VWS V14.00,2013-04-25 15:51:00,
2013-04-25 11:56:00,71.6,58.8,30.16,NE,40,0.0,6.0,64,0.00,,---,0.00,VWS V14.00,2013-04-25 15:56:00,
2013-04-25 12:01:00,71.9,59.1,30.16,East,96,5.0,5.0,64,0.00,,---,0.00,VWS V14.00,2013-04-25 16:01:00,
2013-04-25 12:06:00,72.2,59.4,30.16,NE,51,6.0,10.0,64,0.00,,---,0.00,VWS V14.00,2013-04-25 16:06:00,
2013-04-25 12:11:00,72.2,59.4,30.16,ENE,69,1.0,10.0,64,0.00,,---,0.00,VWS V14.00,2013-04-25 16:11:00,
2013-04-25 12:16:00,72.5,59.2,30.16,ENE,64,3.0,10.0,63,0.00,,---,0.00,VWS V14.00,2013-04-25 16:16:00,
2013-04-25 12:21:00,72.7,57.6,30.16,NE,34,1.0,10.0,59,0.00,,---,0.00,VWS V14.00,2013-04-25 16:21:00,
2013-04-25 12:26:00,72.8,57.7,30.16,NNW,338,4.0,10.0,59,0.00,,---,0.00,VWS V14.00,2013-04-25 16:26:00,
2013-04-25 12:31:00,73.2,58.5,30.16,NNE,22,0.0,6.0,60,0.00,,---,0.00,VWS V14.00,2013-04-25 16:31:00,
2013-04-25 12:36:00,73.7,58.5,30.17,NNW,338,2.0,6.0,59,0.00,,---,0.00,VWS V14.00,2013-04-25 16:36:00,
2013-04-25 12:41:00,74.2,58.0,30.17,NNW,329,1.0,7.0,57,0.00,,---,0.00,VWS V14.00,2013-04-25 16:41:00,
2013-04-25 12:46:00,74.7,58.0,30.17,NW,323,0.0,7.0,56,0.00,,---,0.00,VWS V14.00,2013-04-25 16:46:00,
2013-04-25 12:51:00,74.9,58.7,30.16,West,264,1.0,7.0,57,0.00,,---,0.00,VWS V14.00,2013-04-25 16:51:00,
2013-04-25 12:56:00,75.1,58.8,30.16,NNW,331,6.0,7.0,57,0.00,,---,0.00,VWS V14.00,2013-04-25 16:56:00,
2013-04-25 13:01:00,75.1,57.8,30.16,North,5,3.0,7.0,55,0.00,,---,0.00,VWS V14.00,2013-04-25 17:01:00,
2013-04-25 13:06:00,74.9,57.7,30.16,South,187,0.0,7.0,55,0.00,,---,0.00,VWS V14.00,2013-04-25 17:06:00,
2013-04-25 13:11:00,75.2,57.9,30.16,NNE,32,6.0,7.0,55,0.00,,---,0.00,VWS V14.00,2013-04-25 17:11:00,
2013-04-25 13:16:00,75.3,57.0,30.16,North,5,2.0,7.0,53,0.00,,---,0.00,VWS V14.00,2013-04-25 17:16:00,
2013-04-25 13:21:00,75.2,57.4,30.16,NE,35,4.0,7.0,54,0.00,,---,0.00,VWS V14.00,2013-04-25 17:21:00,
2013-04-25 13:26:00,75.5,57.2,30.16,WSW,246,1.0,8.0,53,0.00,,---,0.00,VWS V14.00,2013-04-25 17:26:00,
2013-04-25 13:31:00,76.1,57.8,30.15,NE,40,2.0,6.0,53,0.00,,---,0.00,VWS V14.00,2013-04-25 17:31:00,
2013-04-25 13:36:00,76.1,57.2,30.16,NNE,21,1.0,9.0,52,0.00,,---,0.00,VWS V14.00,2013-04-25 17:36:00,
2013-04-25 13:41:00,76.4,55.8,30.16,NW,323,2.0,9.0,49,0.00,,---,0.00,VWS V14.00,2013-04-25 17:41:00,
2013-04-25 13:46:00,76.6,55.5,30.16,NNW,347,6.0,9.0,48,0.00,,---,0.00,VWS V14.00,2013-04-25 17:46:00,
2013-04-25 13:51:00,76.5,55.4,30.16,NNW,338,4.0,12.0,48,0.00,,---,0.00,VWS V14.00,2013-04-25 17:51:00,
2013-04-25 13:56:00,76.2,55.7,30.16,ENE,73,3.0,12.0,49,0.00,,---,0.00,VWS V14.00,2013-04-25 17:56:00,
2013-04-25 14:01:00,76.1,56.1,30.16,NE,46,2.0,6.0,50,0.00,,---,0.00,VWS V14.00,2013-04-25 18:01:00,
2013-04-25 14:06:00,76.3,55.2,30.15,North,11,2.0,10.0,48,0.00,,---,0.00,VWS V14.00,2013-04-25 18:06:00,
2013-04-25 14:11:00,76.8,55.7,30.15,NNW,342,2.0,11.0,48,0.00,,---,0.00,VWS V14.00,2013-04-25 18:11:00,
2013-04-25 14:16:00,76.9,54.6,30.15,North,5,3.0,11.0,46,0.00,,---,0.00,VWS V14.00,2013-04-25 18:16:00,
2013-04-25 14:21:00,76.9,54.0,30.16,NW,308,4.0,11.0,45,0.00,,---,0.00,VWS V14.00,2013-04-25 18:21:00,
2013-04-25 14:26:00,77.4,54.4,30.16,WSW,255,1.0,11.0,45,0.00,,---,0.00,VWS V14.00,2013-04-25 18:26:00,
2013-04-25 14:31:00,77.7,54.1,30.16,West,259,4.0,9.0,44,0.00,,---,0.00,VWS V14.00,2013-04-25 18:31:00,
2013-04-25 14:36:00,78.0,54.3,30.16,NW,309,4.0,9.0,44,0.00,,---,0.00,VWS V14.00,2013-04-25 18:36:00,
2013-04-25 14:41:00,78.0,53.7,30.16,SW,215,5.0,9.0,43,0.00,,---,0.00,VWS V14.00,2013-04-25 18:41:00,
2013-04-25 14:46:00,77.9,54.3,30.15,West,278,2.0,9.0,44,0.00,,---,0.00,VWS V14.00,2013-04-25 18:46:00,
2013-04-25 14:51:00,77.7,53.5,30.15,NNW,348,1.0,12.0,43,0.00,,---,0.00,VWS V14.00,2013-04-25 18:51:00,
2013-04-25 14:56:00,77.5,53.3,30.15,NW,312,2.0,12.0,43,0.00,,---,0.00,VWS V14.00,2013-04-25 18:56:00,
2013-04-25 15:01:00,77.6,54.0,30.15,WNW,302,5.0,7.0,44,0.00,,---,0.00,VWS V14.00,2013-04-25 19:01:00,
2013-04-25 15:06:00,77.8,54.8,30.15,NNW,344,0.0,9.0,45,0.00,,---,0.00,VWS V14.00,2013-04-25 19:06:00,
2013-04-25 15:11:00,78.2,52.6,30.15,NNW,328,4.0,9.0,41,0.00,,---,0.00,VWS V14.00,2013-04-25 19:11:00,
2013-04-25 15:16:00,78.4,54.1,30.15,NE,37,5.0,9.0,43,0.00,,---,0.00,VWS V14.00,2013-04-25 19:16:00,
2013-04-25 15:21:00,78.0,53.7,30.15,South,191,4.0,9.0,43,0.00,,---,0.00,VWS V14.00,2013-04-25 19:21:00,
2013-04-25 15:26:00,77.8,51.6,30.15,NW,317,0.0,9.0,40,0.00,,---,0.00,VWS V14.00,2013-04-25 19:26:00,
2013-04-25 15:31:00,78.0,53.1,30.15,ENE,66,3.0,5.0,42,0.00,,---,0.00,VWS V14.00,2013-04-25 19:31:00,
2013-04-25 15:36:00,77.9,50.3,30.15,NNE,28,2.0,7.0,38,0.00,,---,0.00,VWS V14.00,2013-04-25 19:36:00,
2013-04-25 15:41:00,77.7,50.8,30.14,NNE,28,0.0,7.0,39,0.00,,---,0.00,VWS V14.00,2013-04-25 19:41:00,
2013-04-25 15:46:00,78.0,49.7,30.15,NNE,21,6.0,10.0,37,0.00,,---,0.00,VWS V14.00,2013-04-25 19:46:00,
2013-04-25 15:51:00,77.7,50.8,30.15,NW,304,1.0,10.0,39,0.00,,---,0.00,VWS V14.00,2013-04-25 19:51:00,
2013-04-25 15:56:00,77.8,47.2,30.14,WSW,238,4.0,10.0,34,0.00,,---,0.00,VWS V14.00,2013-04-25 19:56:00,
2013-04-25 16:01:00,78.2,49.1,30.14,NNE,26,2.0,8.0,36,0.00,,---,0.00,VWS V14.00,2013-04-25 20:01:00,
2013-04-25 16:06:00,78.0,48.9,30.14,NNW,332,4.0,8.0,36,0.00,,---,0.00,VWS V14.00,2013-04-25 20:06:00,
2013-04-25 16:11:00,78.0,47.4,30.13,NNW,343,4.0,8.0,34,0.00,,---,0.00,VWS V14.00,2013-04-25 20:11:00,
2013-04-25 16:16:00,78.1,48.2,30.13,ENE,58,0.0,8.0,35,0.00,,---,0.00,VWS V14.00,2013-04-25 20:16:00,
2013-04-25 16:21:00,78.2,50.5,30.13,ENE,72,0.0,8.0,38,0.00,,---,0.00,VWS V14.00,2013-04-25 20:21:00,
2013-04-25 16:26:00,78.2,51.2,30.13,NNW,334,1.0,8.0,39,0.00,,---,0.00,VWS V14.00,2013-04-25 20:26:00,
2013-04-25 16:31:00,78.0,50.4,30.13,NW,321,0.0,6.0,38,0.00,,---,0.00,VWS V14.00,2013-04-25 20:31:00,
2013-04-25 16:36:00,78.2,49.8,30.12,NNW,339,5.0,7.0,37,0.00,,---,0.00,VWS V14.00,2013-04-25 20:36:00,
2013-04-25 16:41:00,78.2,49.8,30.13,NNE,14,0.0,7.0,37,0.00,,---,0.00,VWS V14.00,2013-04-25 20:41:00,
2013-04-25 16:46:00,78.0,49.7,30.12,ENE,68,2.0,7.0,37,0.00,,---,0.00,VWS V14.00,2013-04-25 20:46:00,
2013-04-25 16:51:00,78.1,47.5,30.13,North,355,0.0,7.0,34,0.00,,---,0.00,VWS V14.00,2013-04-25 20:51:00,
2013-04-25 16:56:00,78.2,47.6,30.12,ENE,64,4.0,8.0,34,0.00,,---,0.00,VWS V14.00,2013-04-25 20:56:00,
2013-04-25 17:01:00,78.1,49.7,30.12,NNW,341,4.0,4.0,37,0.00,,---,0.00,VWS V14.00,2013-04-25 21:01:00,
2013-04-25 17:06:00,78.0,49.7,30.12,NW,322,1.0,7.0,37,0.00,,---,0.00,VWS V14.00,2013-04-25 21:06:00,
2013-04-25 17:11:00,78.1,50.5,30.12,ENE,68,2.0,7.0,38,0.00,,---,0.00,VWS V14.00,2013-04-25 21:11:00,
2013-04-25 17:16:00,78.0,50.4,30.12,NW,315,5.0,7.0,38,0.00,,---,0.00,VWS V14.00,2013-04-25 21:16:00,
2013-04-25 17:21:00,78.2,49.1,30.13,WSW,256,1.0,7.0,36,0.00,,---,0.00,VWS V14.00,2013-04-25 21:21:00,
2013-04-25 17:26:00,78.2,49.1,30.13,West,275,0.0,7.0,36,0.00,,---,0.00,VWS V14.00,2013-04-25 21:26:00,
2013-04-25 17:31:00,77.9,48.1,30.13,NE,34,1.0,6.0,35,0.00,,---,0.00,VWS V14.00,2013-04-25 21:31:00,
2013-04-25 17:36:00,77.8,50.2,30.13,NE,45,0.0,6.0,38,0.00,,---,0.00,VWS V14.00,2013-04-25 21:36:00,
2013-04-25 17:41:00,77.9,48.8,30.13,NNW,329,2.0,7.0,36,0.00,,---,0.00,VWS V14.00,2013-04-25 21:41:00,
2013-04-25 17:46:00,77.6,50.0,30.13,NNW,341,1.0,8.0,38,0.00,,---,0.00,VWS V14.00,2013-04-25 21:46:00,
2013-04-25 17:51:00,77.5,48.5,30.13,NNE,24,2.0,9.0,36,0.00,,---,0.00,VWS V14.00,2013-04-25 21:51:00,
2013-04-25 17:56:00,77.2,48.2,30.14,NE,38,1.0,9.0,36,0.00,,---,0.00,VWS V14.00,2013-04-25 21:56:00,
2013-04-25 18:01:00,77.2,47.5,30.14,NNE,25,2.0,8.0,35,0.00,,---,0.00,VWS V14.00,2013-04-25 22:01:00,
2013-04-25 18:06:00,77.3,47.5,30.14,NW,320,1.0,8.0,35,0.00,,---,0.00,VWS V14.00,2013-04-25 22:06:00,
2013-04-25 18:11:00,77.4,47.6,30.14,WSW,242,4.0,8.0,35,0.00,,---,0.00,VWS V14.00,2013-04-25 22:11:00,
2013-04-25 18:16:00,77.4,48.4,30.14,WSW,246,2.0,8.0,36,0.00,,---,0.00,VWS V14.00,2013-04-25 22:16:00,
2013-04-25 18:21:00,77.5,47.7,30.14,NE,38,4.0,8.0,35,0.00,,---,0.00,VWS V14.00,2013-04-25 22:21:00,
2013-04-25 18:26:00,77.1,48.8,30.14,NE,46,1.0,8.0,37,0.00,,---,0.00,VWS V14.00,2013-04-25 22:26:00,
2013-04-25 18:31:00,76.9,47.9,30.14,North,349,1.0,6.0,36,0.00,,---,0.00,VWS V14.00,2013-04-25 22:31:00,
2013-04-25 18:36:00,76.6,47.7,30.14,NNW,345,0.0,6.0,36,0.00,,---,0.00,VWS V14.00,2013-04-25 22:36:00,
2013-04-25 18:41:00,76.5,48.3,30.14,NW,311,0.0,6.0,37,0.00,,---,0.00,VWS V14.00,2013-04-25 22:41:00,
2013-04-25 18:46:00,76.4,48.9,30.14,NW,317,0.0,6.0,38,0.00,,---,0.00,VWS V14.00,2013-04-25 22:46:00,
2013-04-25 18:51:00,76.5,49.7,30.14,NW,318,1.0,6.0,39,0.00,,---,0.00,VWS V14.00,2013-04-25 22:51:00,
2013-04-25 18:56:00,76.4,49.6,30.15,NW,318,0.0,6.0,39,0.00,,---,0.00,VWS V14.00,2013-04-25 22:56:00,
2013-04-25 19:01:00,76.4,49.6,30.14,NW,319,0.0,1.0,39,0.00,,---,0.00,VWS V14.00,2013-04-25 23:01:00,
2013-04-25 19:06:00,76.1,49.4,30.15,NW,319,0.0,4.0,39,0.00,,---,0.00,VWS V14.00,2013-04-25 23:06:00,
2013-04-25 19:11:00,75.5,48.8,30.15,NW,324,1.0,4.0,39,0.00,,---,0.00,VWS V14.00,2013-04-25 23:11:00,
2013-04-25 19:16:00,75.0,48.4,30.15,NW,320,0.0,4.0,39,0.00,,---,0.00,VWS V14.00,2013-04-25 23:16:00,
2013-04-25 19:21:00,74.6,48.7,30.15,North,360,0.0,4.0,40,0.00,,---,0.00,VWS V14.00,2013-04-25 23:21:00,
2013-04-25 19:26:00,74.2,49.0,30.15,NE,54,0.0,4.0,41,0.00,,---,0.00,VWS V14.00,2013-04-25 23:26:00,
2013-04-25 19:31:00,73.8,48.7,30.15,NE,54,0.0,1.0,41,0.00,,---,0.00,VWS V14.00,2013-04-25 23:31:00,
2013-04-25 19:36:00,73.5,48.4,30.15,NE,53,0.0,1.0,41,0.00,,---,0.00,VWS V14.00,2013-04-25 23:36:00,
2013-04-25 19:41:00,73.1,49.9,30.15,East,89,0.0,1.0,44,0.00,,---,0.00,VWS V14.00,2013-04-25 23:41:00,
2013-04-25 19:46:00,72.6,50.1,30.16,East,89,0.0,1.0,45,0.00,,---,0.00,VWS V14.00,2013-04-25 23:46:00,
2013-04-25 19:51:00,72.1,49.6,30.15,East,89,0.0,1.0,45,0.00,,---,0.00,VWS V14.00,2013-04-25 23:51:00,
2013-04-25 19:56:00,71.5,49.7,30.16,East,89,0.0,1.0,46,0.00,,---,0.00,VWS V14.00,2013-04-25 23:56:00,
2013-04-25 20:01:00,71.0,49.8,30.16,East,89,0.0,0.0,47,0.00,,---,0.00,VWS V14.00,2013-04-26 00:01:00,
2013-04-25 20:06:00,70.4,50.3,30.16,East,89,0.0,1.0,49,0.00,,---,0.00,VWS V14.00,2013-04-26 00:06:00,
2013-04-25 20:11:00,69.8,50.3,30.16,East,95,0.0,1.0,50,0.00,,---,0.00,VWS V14.00,2013-04-26 00:11:00,
2013-04-25 20:16:00,69.2,50.8,30.16,East,95,0.0,1.0,52,0.00,,---,0.00,VWS V14.00,2013-04-26 00:16:00,
2013-04-25 20:21:00,68.6,50.8,30.16,East,95,0.0,1.0,53,0.00,,---,0.00,VWS V14.00,2013-04-26 00:21:00,
2013-04-25 20:26:00,68.0,50.8,30.16,East,95,0.0,1.0,54,0.00,,---,0.00,VWS V14.00,2013-04-26 00:26:00,
2013-04-25 20:31:00,67.2,51.0,30.16,East,95,0.0,0.0,56,0.00,,---,0.00,VWS V14.00,2013-04-26 00:31:00,
2013-04-25 20:36:00,66.5,50.3,30.16,East,95,0.0,0.0,56,0.00,,---,0.00,VWS V14.00,2013-04-26 00:36:00,
2013-04-25 20:41:00,65.9,50.7,30.17,East,95,0.0,0.0,58,0.00,,---,0.00,VWS V14.00,2013-04-26 00:41:00,
2013-04-25 20:46:00,65.3,50.6,30.17,East,95,0.0,0.0,59,0.00,,---,0.00,VWS V14.00,2013-04-26 00:46:00,
2013-04-25 20:51:00,64.8,50.2,30.17,East,95,0.0,0.0,59,0.00,,---,0.00,VWS V14.00,2013-04-26 00:51:00,
2013-04-25 20:56:00,64.3,50.1,30.17,East,95,0.0,0.0,60,0.00,,---,0.00,VWS V14.00,2013-04-26 00:56:00,
2013-04-25 21:01:00,63.7,50.0,30.17,East,95,0.0,0.0,61,0.00,,---,0.00,VWS V14.00,2013-04-26 01:01:00,
2013-04-25 21:06:00,63.2,50.0,30.18,East,95,0.0,0.0,62,0.00,,---,0.00,VWS V14.00,2013-04-26 01:06:00,
2013-04-25 21:11:00,62.8,49.2,30.18,East,95,0.0,0.0,61,0.00,,---,0.00,VWS V14.00,2013-04-26 01:11:00,
2013-04-25 21:16:00,62.5,48.4,30.18,East,95,0.0,0.0,60,0.00,,---,0.00,VWS V14.00,2013-04-26 01:16:00,
2013-04-25 21:21:00,62.3,48.2,30.18,East,95,0.0,0.0,60,0.00,,---,0.00,VWS V14.00,2013-04-26 01:21:00,
2013-04-25 21:26:00,62.0,48.0,30.18,East,95,0.0,0.0,60,0.00,,---,0.00,VWS V14.00,2013-04-26 01:26:00,
2013-04-25 21:31:00,61.7,48.6,30.19,East,95,0.0,0.0,62,0.00,,---,0.00,VWS V14.00,2013-04-26 01:31:00,
2013-04-25 21:36:00,61.4,49.1,30.19,East,95,0.0,0.0,64,0.00,,---,0.00,VWS V14.00,2013-04-26 01:36:00,
2013-04-25 21:41:00,61.1,48.8,30.19,East,95,0.0,0.0,64,0.00,,---,0.00,VWS V14.00,2013-04-26 01:41:00,
2013-04-25 21:46:00,60.8,48.1,30.19,East,95,0.0,0.0,63,0.00,,---,0.00,VWS V14.00,2013-04-26 01:46:00,
2013-04-25 21:51:00,60.4,47.8,30.20,East,95,0.0,0.0,63,0.00,,---,0.00,VWS V14.00,2013-04-26 01:51:00,
2013-04-25 21:56:00,60.1,48.7,30.20,East,95,0.0,0.0,66,0.00,,---,0.00,VWS V14.00,2013-04-26 01:56:00,
2013-04-25 22:01:00,59.7,48.7,30.20,East,95,0.0,0.0,67,0.00,,---,0.00,VWS V14.00,2013-04-26 02:01:00,
2013-04-25 22:06:00,59.3,48.4,30.20,East,95,0.0,0.0,67,0.00,,---,0.00,VWS V14.00,2013-04-26 02:06:00,
2013-04-25 22:11:00,59.0,48.1,30.20,East,95,0.0,0.0,67,0.00,,---,0.00,VWS V14.00,2013-04-26 02:11:00,
2013-04-25 22:16:00,58.7,47.8,30.20,East,95,0.0,0.0,67,0.00,,---,0.00,VWS V14.00,2013-04-26 02:16:00,
2013-04-25 22:21:00,58.3,47.0,30.21,East,95,0.0,0.0,66,0.00,,---,0.00,VWS V14.00,2013-04-26 02:21:00,
2013-04-25 22:26:00,58.1,46.0,30.21,East,95,0.0,0.0,64,0.00,,---,0.00,VWS V14.00,2013-04-26 02:26:00,
2013-04-25 22:31:00,58.1,46.4,30.21,East,95,0.0,0.0,65,0.00,,---,0.00,VWS V14.00,2013-04-26 02:31:00,
2013-04-25 22:36:00,57.9,46.2,30.21,East,95,0.0,0.0,65,0.00,,---,0.00,VWS V14.00,2013-04-26 02:36:00,
2013-04-25 22:41:00,57.6,45.5,30.21,East,95,0.0,0.0,64,0.00,,---,0.00,VWS V14.00,2013-04-26 02:41:00,
2013-04-25 22:46:00,57.6,45.1,30.21,East,95,0.0,0.0,63,0.00,,---,0.00,VWS V14.00,2013-04-26 02:46:00,
2013-04-25 22:51:00,57.6,44.7,30.21,East,95,0.0,0.0,62,0.00,,---,0.00,VWS V14.00,2013-04-26 02:51:00,
2013-04-25 22:56:00,57.6,44.7,30.21,East,95,0.0,0.0,62,0.00,,---,0.00,VWS V14.00,2013-04-26 02:56:00,
2013-04-25 23:01:00,57.5,43.7,30.21,East,95,0.0,0.0,60,0.00,,---,0.00,VWS V14.00,2013-04-26 03:01:00,
2013-04-25 23:06:00,57.5,44.2,30.21,East,95,0.0,0.0,61,0.00,,---,0.00,VWS V14.00,2013-04-26 03:06:00,
2013-04-25 23:11:00,57.3,44.0,30.21,East,95,0.0,0.0,61,0.00,,---,0.00,VWS V14.00,2013-04-26 03:11:00,
2013-04-25 23:16:00,57.0,43.7,30.21,East,95,0.0,0.0,61,0.00,,---,0.00,VWS V14.00,2013-04-26 03:16:00,
2013-04-25 23:21:00,56.8,43.1,30.21,East,95,0.0,0.0,60,0.00,,---,0.00,VWS V14.00,2013-04-26 03:21:00,
2013-04-25 23:26:00,56.7,43.0,30.22,East,95,0.0,0.0,60,0.00,,---,0.00,VWS V14.00,2013-04-26 03:26:00,
2013-04-25 23:31:00,56.6,42.0,30.21,East,95,0.0,0.0,58,0.00,,---,0.00,VWS V14.00,2013-04-26 03:31:00,
2013-04-25 23:36:00,56.5,41.9,30.21,East,95,0.0,0.0,58,0.00,,---,0.00,VWS V14.00,2013-04-26 03:36:00,
2013-04-25 23:41:00,56.5,42.4,30.21,East,95,0.0,0.0,59,0.00,,---,0.00,VWS V14.00,2013-04-26 03:41:00,
2013-04-25 23:46:00,56.5,42.8,30.21,East,95,0.0,0.0,60,0.00,,---,0.00,VWS V14.00,2013-04-26 03:46:00,
2013-04-25 23:51:00,56.4,41.8,30.22,East,95,0.0,0.0,58,0.00,,---,0.00,VWS V14.00,2013-04-26 03:51:00,
2013-04-25 23:56:00,56.4,41.8,30.22,East,95,0.0,0.0,58,0.00,,---,0.00,VWS V14.00,2013-04-26 03:56:00,